Find OneWeb SL0538

NORAD ID: 56047 Int'l Des: 2023-043 Owner: ONEWEBN Country: UK Constellation: oneweb operational
又名: ONEWEB-0538 spacetrack, celestrak
LEOCIRCULARPOLARONEWEB_TYPE

当前视图

正在加载3D地球...

About OneWeb SL0538

OneWeb SL0538 (NORAD 56047) is a oneweb constellation satellite launched Mar 26, 2023 by ONEWEBN of UK. It operates in LEO, CIRCULAR, POLAR, ONEWEB_TYPE orbit with a mass of 148.00 kg.

即将过境

Passes for default location (London). Set your location on the main map for personalized predictions.

高度历史

Loading altitude history...

两行轨道根数

1 56047U 23043B 26264.24842290 -.00000054 00000-0 -17565-3 0 9993
2 56047 87.9160 209.7038 0001797 75.5725 284.5605 13.16594187171610
Epoch: Sep 21, 2026 • Age: 7 hours

当前状态

高度 1200.8 km
远地点 / 近地点 N/A
速度 7.26 km/s
星下点 31.54°N, 9.22°E
发射日期 Mar 26, 2023
运行时间 3.4 years
类型 internet

技术详情

分类 Payload
质量 148.00 kg
干质量 140.00 kg
长度 1.30 m
直径 1.00 m
跨度 5.00 m
形状 ? Trapezoid+2 pan
制造商 ONEWUS
平台类型 ARROW
阶段状态 In Orbit
所有者/国家 ONEWEBN/UK

Most Searched